Terminal Aerodrome Forecast
Issued by NWS Mt. Holly, NJ

Home | Current Version | Previous Version | Text Only | Print | Product List | Glossary On
Versions: 1 2 3 4 5 6 7 8 9 10 11 12 13 14 15 16 17 18 19 20
000
FTUS41 KPHI 300151 AAA
TAFABE
TAF AMD
KABE 300151Z 3002/3024 VRB03KT P6SM SCT060
      TEMPO 3005/3008 4SM BR
     FM301000 VRB03KT 2SM BR BKN200
     FM301300 12004KT P6SM SCT050 BKN100
     FM301800 15005KT 5SM SHRA OVC050=

USA.gov is the U.S. government's official web portal to all federal, state and local government web resources and services.